Location: Almena City Lake
(39.8850°N, 99.6804°W)
Time: 10:32:52
(UTC+00:00)

Cosmos 2297 - Pass Details

Date: 18 February 2020
Orbit: 837 x 858 km, 71.0° (Epoch: 08 April)

Event Time Altitude Azimuth Distance (km) Brightness Sun altitude
Exits shadow 11:13:28 51° 190° (S) 1,045 4.0 -26.5°
Drops below altitude 10° 11:17:44 10° 168° (SSE) 2,450 6.2 -25.6°
Sets 11:20:11 0° 166° (SSE) 3,384 6.9 -25.2°
